Location: Pedholt
(56.0260°N, 10.2097°E)
Time: 07:29:25
(UTC+00:00)

SR - Pass Details

Date: 29 July 2021
Orbit: 581 x 874 km, 66.7° (Epoch: 24 September)

Event Time Altitude Azimuth Distance (km) Brightness Sun altitude
Rises 14:51:01 0° 314° (NW) 3,181 ? 36.5°
Reaches altitude 10° 14:53:37 10° 307° (NW) 2,202 ? 36.2°
Maximum altitude 14:58:10 37° 241° (WSW) 1,048 ? 35.6°
Drops below altitude 10° 15:02:22 10° 174° (S) 2,025 ? 35.1°
Sets 15:04:40 0° 166° (SSE) 2,891 ? 34.8°
